This is the latest recevied weather packets stored in our database for station/object OH6HPS. If no packets are shown the sender has not sent any weather packets the latest 10 day(s).
| Time | Temp. | Humidity | Pressure | Rain* | Wind** | Luminosity | Snow |
|---|---|---|---|---|---|---|---|
| 1777783151 | 7.22° C | 87% | 1005.9 hPa | 0 mm | - | 63 W/m² | - |
| 1777782552 | 6.67° C | 87% | 1006 hPa | 0 mm | - | 35 W/m² | - |
| 1777781952 | 6.67° C | 88% | 1006.1 hPa | 0 mm | - | 34 W/m² | - |
| 1777781358 | 6.11° C | 89% | 1005.8 hPa | 0 mm | - | 39 W/m² | - |
| 1777780752 | 5.56° C | 90% | 1005.7 hPa | 0 mm | - | 42 W/m² | - |
| 1777780151 | 5.56° C | 90% | 1005.5 hPa | 0 mm | - | 42 W/m² | - |
| 1777779550 | 5° C | 90% | 1005.3 hPa | 0 mm | - | 51 W/m² | - |
| 1777779083 | 4.44° C | 88% | 1005 hPa | 0 mm | - | 18 W/m² | - |
| 1777779041 | 4.44° C | 88% | 1005.3 hPa | 0 mm | - | 14 W/m² | - |
| 1777778950 | 5° C | 91% | 1005.2 hPa | 0 mm | - | 56 W/m² | - |
| 1777778931 | 4.44° C | 90% | 1005.2 hPa | 0 mm | - | 21 W/m² | - |
| 1777778896 | 4.44° C | 90% | 1005 hPa | 0 mm | - | 18 W/m² | - |
| 1777775348 | 4.44° C | 88% | 1005.2 hPa | 0 mm | - | 7 W/m² | - |
| 1777774749 | 4.44° C | 88% | 1005.2 hPa | 0 mm | - | 0 W/m² | - |
| 1777774148 | 4.44° C | 88% | 1005.2 hPa | 0 mm | - | 0 W/m² | - |
| 1777773549 | 4.44° C | 88% | 1005 hPa | 0 mm | - | 0 W/m² | - |
| 1777772948 | 4.44° C | 88% | 1004.9 hPa | 0 mm | - | 0 W/m² | - |
| 1777772348 | 4.44° C | 87% | 1004.9 hPa | 0 mm | - | 0 W/m² | - |
| 1777771747 | 4.44° C | 88% | 1005 hPa | 0 mm | - | 0 W/m² | - |
| 1777771147 | 4.44° C | 86% | 1004.8 hPa | 0 mm | - | 0 W/m² | - |
| 1777770546 | 5° C | 86% | 1004.9 hPa | 0 mm | - | 0 W/m² | - |
| 1777769947 | 5° C | 85% | 1005.2 hPa | 0 mm | - | 0 W/m² | - |
| 1777769349 | 5.56° C | 84% | 1005.2 hPa | 0 mm | - | 0 W/m² | - |
| 1777768746 | 5.56° C | 85% | 1005.2 hPa | 0 mm | - | 0 W/m² | - |
| 1777768145 | 5.56° C | 84% | 1005.1 hPa | 0 mm | - | 0 W/m² | - |
* Rain latest hour (hover to see other rain measurements)
** Current wind speed in m/s (hover to see current wind gust speed)